Вернуться в каталог

STARLINK-33938

АктивенСвязьVLEO
NORAD 63778·PAYLOAD·🇺🇸 United States

Запущен May 2, 2025 с Cape Canaveral Space Force Station

Loading…

Ближайшие Пролёты (ближайшие 24 часа)

TLE

СвежийSource: CelesTrak SupGP

Эпоха: Sep 14, 2026, 21:32 UTC

1 63778C 25091D   26257.89770833  .00068994  00000+0  24969-2 0  2579
2 63778  43.0031  64.0514 0001675 279.7862 247.6381 15.27571538    10

Отслеживайте STARLINK-33938 в реальном времени с AllMySat

Download on the App Store